Location: Oberkirch
(48.5323°N, 8.0787°E)
Time: 01:58:24
(UTC+00:00)

Cosmos 2237 Rocket - Pass Details

Date: 08 November 2025
Orbit: 835 x 847 km, 71.0° (Epoch: 13 December)

Event Time Altitude Azimuth Distance (km) Brightness Sun altitude
Rises 05:15:25 0° 212° (SSW) 3,392 5.1 -11.7°
Reaches altitude 10° 05:17:51 10° 214° (SW) 2,459 4.4 -11.4°
Maximum altitude 05:23:30 73° 300° (WNW) 883 2.1 -10.4°
Drops below altitude 10° 05:29:10 10° 25° (NNE) 2,467 4.8 -9.5°
Sets 05:31:38 0° 28° (NNE) 3,404 5.5 -9.1°
